Time,TemperatureF,DewpointF,PressureIn,WindDirection,WindDirectionDegrees,WindSpeedMPH,WindSpeedGustMPH,Humidity,HourlyPrecipIn,Conditions,Clouds,dailyrainin,SoftwareType,DateUTC
2013-07-20 00:05:00,61.0,39.4,30.21,East,86,2.9,7.2,44,0.00,,,-99.99,,2013-07-19 22:05:00,
2013-07-20 00:14:00,60.8,39.1,30.21,East,83,3.3,5.4,44,0.00,,,-99.99,,2013-07-19 22:14:00,
2013-07-20 00:20:00,60.8,38.9,30.21,East,80,3.1,4.2,44,0.00,,,-99.99,,2013-07-19 22:20:00,
2013-07-20 00:30:00,60.7,38.7,30.21,ENE,77,3.1,5.6,44,0.00,,,-99.99,,2013-07-19 22:30:00,
2013-07-20 00:39:00,60.5,39.0,30.21,ENE,74,3.0,5.2,44,0.00,,,-99.99,,2013-07-19 22:39:00,
2013-07-20 00:44:00,60.4,39.0,30.21,East,90,2.8,4.8,45,0.00,,,-99.99,,2013-07-19 22:44:00,
2013-07-20 00:50:00,60.3,39.0,30.21,East,86,2.8,4.4,45,0.00,,,-99.99,,2013-07-19 22:50:00,
2013-07-20 00:59:00,60.3,38.8,30.21,East,80,3.4,4.8,44,0.00,,,-99.99,,2013-07-19 22:59:00,
2013-07-20 01:05:00,60.4,38.3,30.21,East,80,3.6,6.8,43,0.00,,,-99.99,,2013-07-19 23:05:00,
2013-07-20 01:15:00,60.4,38.0,30.21,ENE,77,3.2,7.2,43,0.00,,,-99.99,,2013-07-19 23:15:00,
2013-07-20 01:25:00,60.3,37.9,30.20,ENE,73,2.8,4.8,43,0.00,,,-99.99,,2013-07-19 23:25:00,
2013-07-20 01:35:00,60.2,37.6,30.20,East,80,3.2,7.2,42,0.00,,,-99.99,,2013-07-19 23:35:00,
2013-07-20 01:44:00,60.1,38.3,30.20,SE,126,2.0,4.6,44,0.00,,,-99.99,,2013-07-19 23:44:00,
2013-07-20 01:49:00,59.8,38.2,30.20,South,180,2.3,7.3,44,0.00,,,-99.99,,2013-07-19 23:49:00,
2013-07-20 01:54:00,59.6,38.4,30.20,South,191,1.8,2.4,45,0.00,,,-99.99,,2013-07-19 23:54:00,
2013-07-20 02:00:00,59.5,38.6,30.20,WSW,241,0.6,2.2,45,0.00,,,-99.99,,2013-07-20 00:00:00,
2013-07-20 02:09:00,59.3,38.3,30.20,WSW,257,0.0,0.3,45,0.00,,,-99.99,,2013-07-20 00:09:00,
2013-07-20 02:14:00,59.0,38.3,30.20,North,4,0.4,2.2,46,0.00,,,-99.99,,2013-07-20 00:14:00,
2013-07-20 02:20:00,58.9,38.9,30.20,ENE,68,1.5,2.0,47,0.00,,,-99.99,,2013-07-20 00:20:00,
2013-07-20 02:29:00,58.9,39.2,30.20,ENE,71,0.9,1.3,48,0.00,,,-99.99,,2013-07-20 00:29:00,
2013-07-20 02:35:00,58.8,39.7,30.20,ENE,58,0.8,5.3,48,0.00,,,-99.99,,2013-07-20 00:35:00,
2013-07-20 02:44:00,58.7,39.8,30.20,ENE,67,1.5,2.0,49,0.00,,,-99.99,,2013-07-20 00:44:00,
2013-07-20 02:50:00,58.6,39.6,30.20,ENE,73,1.3,2.0,49,0.00,,,-99.99,,2013-07-20 00:50:00,
2013-07-20 02:59:00,58.5,40.0,30.20,ENE,62,1.4,1.8,49,0.00,,,-99.99,,2013-07-20 00:59:00,
2013-07-20 03:05:00,58.3,39.8,30.20,ENE,71,1.1,1.4,50,0.00,,,-99.99,,2013-07-20 01:05:00,
2013-07-20 03:15:00,57.7,39.7,30.20,ENE,57,1.2,1.5,50,0.00,,,-99.99,,2013-07-20 01:15:00,
2013-07-20 03:25:00,57.7,39.9,30.20,ENE,60,0.8,1.0,51,0.00,,,-99.99,,2013-07-20 01:25:00,
2013-07-20 03:35:00,57.6,40.3,30.20,ENE,65,1.5,2.3,52,0.00,,,-99.99,,2013-07-20 01:35:00,
2013-07-20 03:45:00,57.3,40.2,30.20,ENE,58,1.6,1.9,52,0.00,,,-99.99,,2013-07-20 01:45:00,
2013-07-20 03:55:00,56.9,40.0,30.20,ENE,61,1.5,2.0,53,0.00,,,-99.99,,2013-07-20 01:55:00,
2013-07-20 04:04:00,56.8,40.2,30.20,ENE,61,1.2,1.5,53,0.00,,,-99.99,,2013-07-20 02:04:00,
2013-07-20 04:09:00,56.9,40.0,30.20,ENE,58,1.1,1.7,53,0.00,,,-99.99,,2013-07-20 02:09:00,
2013-07-20 04:15:00,56.8,40.1,30.20,ENE,69,1.5,5.7,53,0.00,,,-99.99,,2013-07-20 02:15:00,
2013-07-20 04:24:00,56.7,40.3,30.20,NE,52,1.2,7.9,54,0.00,,,-99.99,,2013-07-20 02:24:00,
2013-07-20 04:30:00,56.8,40.6,30.20,NE,53,1.2,1.6,54,0.00,,,-99.99,,2013-07-20 02:30:00,
2013-07-20 04:40:00,56.7,40.1,30.20,NE,45,1.1,1.6,53,0.00,,,-99.99,,2013-07-20 02:40:00,
2013-07-20 04:50:00,56.8,40.4,30.20,ENE,67,1.2,2.1,54,0.00,,,-99.99,,2013-07-20 02:50:00,
2013-07-20 05:00:00,56.8,40.6,30.20,NE,50,0.9,1.4,54,0.00,,,-99.99,,2013-07-20 03:00:00,
2013-07-20 05:11:00,56.3,40.4,30.20,NNE,33,1.6,2.9,54,0.00,,,-99.99,,2013-07-20 03:11:00,
2013-07-20 05:19:00,56.1,40.7,30.20,NE,41,1.7,3.1,56,0.00,,,-99.99,,2013-07-20 03:19:00,
2013-07-20 05:24:00,56.5,41.4,30.19,NE,46,1.5,2.2,56,0.00,,,-99.99,,2013-07-20 03:24:00,
2013-07-20 05:30:00,56.7,41.8,30.19,NE,50,1.2,1.6,57,0.00,,,-99.99,,2013-07-20 03:30:00,
2013-07-20 05:40:00,56.8,41.9,30.19,NE,43,1.4,5.8,57,0.00,,,-99.99,,2013-07-20 03:40:00,
2013-07-20 05:49:00,57.1,41.9,30.19,NE,35,1.9,6.8,56,0.00,,,-99.99,,2013-07-20 03:49:00,
2013-07-20 05:59:00,57.1,41.5,30.19,NE,34,2.2,2.8,55,0.00,,,-99.99,,2013-07-20 03:59:00,
2013-07-20 06:04:00,56.9,41.8,30.19,NE,37,1.7,2.1,57,0.00,,,-99.99,,2013-07-20 04:04:00,
2013-07-20 06:10:00,56.8,41.8,30.19,NNE,29,1.7,4.9,57,0.00,,,-99.99,,2013-07-20 04:10:00,
2013-07-20 06:19:00,56.9,42.1,30.19,NNE,28,1.4,2.1,57,0.00,,,-99.99,,2013-07-20 04:19:00,
2013-07-20 06:24:00,56.8,42.2,30.19,NNE,30,1.4,1.8,58,0.00,,,-99.99,,2013-07-20 04:24:00,
2013-07-20 06:29:00,56.7,42.1,30.19,NNE,29,0.8,10.2,57,0.00,,,-99.99,,2013-07-20 04:29:00,
2013-07-20 06:34:00,56.6,42.5,30.19,NNE,33,1.1,7.5,59,0.00,,,-99.99,,2013-07-20 04:34:00,
2013-07-20 06:40:00,56.6,42.2,30.19,NNE,29,1.3,2.1,58,0.00,,,-99.99,,2013-07-20 04:40:00,
2013-07-20 06:50:00,56.2,42.5,30.19,NE,38,1.4,2.1,59,0.00,,,-99.99,,2013-07-20 04:50:00,
2013-07-20 07:00:00,56.5,42.2,30.19,NE,45,0.6,1.2,58,0.00,,,-99.99,,2013-07-20 05:00:00,
2013-07-20 07:09:00,56.6,42.1,30.19,ENE,68,0.4,1.2,58,0.00,,,-99.99,,2013-07-20 05:09:00,
2013-07-20 07:15:00,56.7,42.2,30.20,East,89,0.2,0.7,58,0.00,,,-99.99,,2013-07-20 05:15:00,
2013-07-20 07:24:00,56.7,42.7,30.20,East,81,0.6,1.3,59,0.00,,,-99.99,,2013-07-20 05:24:00,
2013-07-20 07:29:00,56.8,43.1,30.20,East,82,0.6,1.1,60,0.00,,,-99.99,,2013-07-20 05:29:00,
2013-07-20 07:41:00,57.0,43.8,30.20,East,85,0.2,0.8,61,0.00,,,-99.99,,2013-07-20 05:41:00,
2013-07-20 07:49:00,58.0,44.0,30.19,ESE,122,0.2,0.8,59,0.00,,,-99.99,,2013-07-20 05:49:00,
2013-07-20 08:00:00,58.7,43.6,30.20,South,181,2.2,2.9,57,0.00,,,-99.99,,2013-07-20 06:00:00,
2013-07-20 08:09:00,58.8,42.7,30.20,South,186,2.0,2.8,54,0.00,,,-99.99,,2013-07-20 06:09:00,
2013-07-20 08:15:00,59.1,43.3,30.20,South,184,1.7,2.7,55,0.00,,,-99.99,,2013-07-20 06:15:00,
2013-07-20 08:24:00,59.2,43.5,30.20,SSW,199,2.0,7.8,55,0.00,,,-99.99,,2013-07-20 06:24:00,
2013-07-20 08:34:00,59.8,44.7,30.20,SSW,200,1.9,2.8,57,0.00,,,-99.99,,2013-07-20 06:34:00,
2013-07-20 08:40:00,59.9,45.9,30.20,South,184,1.5,8.5,59,0.00,,,-99.99,,2013-07-20 06:40:00,
2013-07-20 08:50:00,60.2,45.9,30.20,South,188,2.0,3.1,59,0.00,,,-99.99,,2013-07-20 06:50:00,
2013-07-20 08:59:00,60.4,45.8,30.20,South,189,1.5,8.2,58,0.00,,,-99.99,,2013-07-20 06:59:00,
2013-07-20 09:10:00,61.1,46.8,30.20,SSW,192,1.5,2.7,59,0.00,,,-99.99,,2013-07-20 07:10:00,
2013-07-20 09:19:00,61.3,46.1,30.20,South,182,1.9,8.0,57,0.00,,,-99.99,,2013-07-20 07:19:00,
2013-07-20 09:25:00,61.2,45.4,30.20,South,189,2.4,3.7,55,0.00,,,-99.99,,2013-07-20 07:25:00,
2013-07-20 09:34:00,61.6,44.6,30.20,SSW,202,2.1,5.2,53,0.00,,,-99.99,,2013-07-20 07:34:00,
2013-07-20 09:40:00,61.8,44.3,30.20,SSE,167,1.7,2.9,52,0.00,,,-99.99,,2013-07-20 07:40:00,
2013-07-20 09:50:00,62.3,44.6,30.21,SSW,196,2.3,3.2,52,0.00,,,-99.99,,2013-07-20 07:50:00,
2013-07-20 09:59:00,62.8,44.3,30.21,SSW,195,3.1,5.0,50,0.00,,,-99.99,,2013-07-20 07:59:00,
2013-07-20 10:04:00,62.7,44.1,30.20,SW,230,2.7,6.8,50,0.00,,,-99.99,,2013-07-20 08:04:00,
2013-07-20 10:10:00,63.2,44.6,30.20,SW,230,2.5,6.2,50,0.00,,,-99.99,,2013-07-20 08:10:00,
2013-07-20 10:19:00,64.1,44.8,30.20,SW,219,2.3,4.4,49,0.00,,,-99.99,,2013-07-20 08:19:00,
2013-07-20 10:24:00,64.1,44.7,30.20,SW,217,2.3,4.1,49,0.00,,,-99.99,,2013-07-20 08:24:00,
2013-07-20 10:34:00,64.7,44.7,30.20,SW,227,2.4,5.5,48,0.00,,,-99.99,,2013-07-20 08:34:00,
2013-07-20 10:40:00,65.0,45.3,30.20,South,187,3.1,7.7,48,0.00,,,-99.99,,2013-07-20 08:40:00,
2013-07-20 10:50:00,65.7,45.8,30.21,SW,216,2.8,8.0,48,0.00,,,-99.99,,2013-07-20 08:50:00,
2013-07-20 11:00:00,66.1,46.2,30.21,SSW,212,3.4,6.7,48,0.00,,,-99.99,,2013-07-20 09:00:00,
2013-07-20 11:09:00,66.9,46.9,30.21,SW,233,3.4,5.0,48,0.00,,,-99.99,,2013-07-20 09:09:00,
2013-07-20 11:15:00,67.0,46.9,30.21,SW,225,3.8,7.9,48,0.00,,,-99.99,,2013-07-20 09:15:00,
2013-07-20 11:25:00,67.2,46.5,30.21,SSW,206,3.5,5.7,47,0.00,,,-99.99,,2013-07-20 09:25:00,
2013-07-20 11:35:00,68.0,46.3,30.21,South,185,3.1,8.1,45,0.00,,,-99.99,,2013-07-20 09:35:00,
2013-07-20 11:45:00,68.2,46.0,30.21,South,180,3.6,5.6,44,0.00,,,-99.99,,2013-07-20 09:45:00,
2013-07-20 11:55:00,68.3,45.4,30.21,SSW,210,3.4,5.7,43,0.00,,,-99.99,,2013-07-20 09:55:00,
2013-07-20 12:05:00,69.0,45.7,30.21,SSW,200,3.7,5.5,43,0.00,,,-99.99,,2013-07-20 10:05:00,
2013-07-20 12:15:00,69.8,46.3,30.21,SSW,198,5.1,8.3,42,0.00,,,-99.99,,2013-07-20 10:15:00,
2013-07-20 12:25:00,70.1,46.0,30.21,SW,219,3.9,7.5,42,0.00,,,-99.99,,2013-07-20 10:25:00,
2013-07-20 12:35:00,70.5,46.1,30.21,SSW,209,3.4,6.3,41,0.00,,,-99.99,,2013-07-20 10:35:00,
2013-07-20 12:46:00,71.2,46.0,30.21,SW,233,4.4,6.7,40,0.00,,,-99.99,,2013-07-20 10:46:00,
2013-07-20 12:55:00,71.8,46.0,30.21,SW,236,3.3,6.6,39,0.00,,,-99.99,,2013-07-20 10:55:00,
2013-07-20 13:05:00,72.1,45.7,30.21,WSW,244,3.7,8.1,38,0.00,,,-99.99,,2013-07-20 11:05:00,
2013-07-20 13:14:00,72.5,45.8,30.21,SSW,208,4.3,8.7,38,0.00,,,-99.99,,2013-07-20 11:14:00,
2013-07-20 13:20:00,72.3,44.9,30.21,SSW,204,4.8,9.9,37,0.00,,,-99.99,,2013-07-20 11:20:00,
2013-07-20 13:29:00,73.9,45.9,30.20,SSW,198,4.6,6.8,36,0.00,,,-99.99,,2013-07-20 11:29:00,
2013-07-20 13:35:00,73.8,45.2,30.20,SSW,206,5.5,8.9,35,0.00,,,-99.99,,2013-07-20 11:35:00,
2013-07-20 13:45:00,73.2,44.6,30.20,SW,222,4.4,6.8,35,0.00,,,-99.99,,2013-07-20 11:45:00,
2013-07-20 13:54:00,73.6,45.2,30.20,SSW,207,4.4,9.3,36,0.00,,,-99.99,,2013-07-20 11:54:00,
2013-07-20 14:00:00,74.1,46.1,30.20,SSW,206,4.7,7.3,36,0.00,,,-99.99,,2013-07-20 12:00:00,
2013-07-20 14:10:00,74.4,45.6,30.20,SSW,207,3.9,6.7,35,0.00,,,-99.99,,2013-07-20 12:10:00,
2013-07-20 14:21:00,76.3,46.8,30.20,West,259,4.3,7.5,35,0.00,,,-99.99,,2013-07-20 12:21:00,
2013-07-20 14:29:00,76.1,45.8,30.20,WSW,255,3.7,7.9,34,0.00,,,-99.99,,2013-07-20 12:29:00,
2013-07-20 14:34:00,75.5,45.3,30.19,SW,232,3.8,6.6,34,0.00,,,-99.99,,2013-07-20 12:34:00,
2013-07-20 14:40:00,75.6,45.0,30.19,West,272,3.8,5.3,33,0.00,,,-99.99,,2013-07-20 12:40:00,
2013-07-20 14:49:00,76.6,46.3,30.19,SSW,198,3.6,6.8,34,0.00,,,-99.99,,2013-07-20 12:49:00,
2013-07-20 14:55:00,77.0,46.6,30.19,WSW,246,4.9,8.0,34,0.00,,,-99.99,,2013-07-20 12:55:00,
2013-07-20 15:04:00,76.9,45.7,30.19,SSW,205,4.6,6.9,33,0.00,,,-99.99,,2013-07-20 13:04:00,
2013-07-20 15:10:00,76.9,46.5,30.19,SW,222,5.0,8.7,34,0.00,,,-99.99,,2013-07-20 13:10:00,
2013-07-20 15:20:00,77.6,46.7,30.18,SSW,210,5.3,8.1,33,0.00,,,-99.99,,2013-07-20 13:20:00,
2013-07-20 15:30:00,78.6,47.1,30.18,SW,227,4.7,8.1,32,0.00,,,-99.99,,2013-07-20 13:30:00,
2013-07-20 15:40:00,78.2,46.2,30.18,SSW,204,5.1,7.3,32,0.00,,,-99.99,,2013-07-20 13:40:00,
2013-07-20 15:50:00,79.1,46.9,30.18,SW,234,5.1,8.2,32,0.00,,,-99.99,,2013-07-20 13:50:00,
2013-07-20 16:00:00,79.0,46.7,30.18,WSW,254,5.3,8.8,32,0.00,,,-99.99,,2013-07-20 14:00:00,
2013-07-20 16:09:00,79.0,46.5,30.18,WSW,240,5.0,8.6,31,0.00,,,-99.99,,2013-07-20 14:09:00,
2013-07-20 16:14:00,79.4,46.8,30.18,WSW,258,4.5,7.0,31,0.00,,,-99.99,,2013-07-20 14:14:00,
2013-07-20 16:21:00,79.5,47.2,30.18,SW,229,4.4,8.8,32,0.00,,,-99.99,,2013-07-20 14:21:00,
2013-07-20 16:29:00,79.5,47.1,30.18,WSW,241,5.3,8.2,31,0.00,,,-99.99,,2013-07-20 14:29:00,
2013-07-20 16:40:00,79.0,46.9,30.18,SSW,194,4.6,6.9,32,0.00,,,-99.99,,2013-07-20 14:40:00,
2013-07-20 16:50:00,79.9,47.6,30.17,SSW,193,4.4,7.3,32,0.00,,,-99.99,,2013-07-20 14:50:00,
2013-07-20 16:59:00,79.0,46.9,30.17,SSW,204,5.7,11.3,32,0.00,,,-99.99,,2013-07-20 14:59:00,
2013-07-20 17:06:00,79.1,47.0,30.17,SSW,193,4.4,6.6,32,0.00,,,-99.99,,2013-07-20 15:06:00,
2013-07-20 17:14:00,79.2,47.1,30.17,South,184,5.0,6.2,32,0.00,,,-99.99,,2013-07-20 15:14:00,
2013-07-20 17:19:00,79.8,47.5,30.17,SW,215,4.9,8.1,32,0.00,,,-99.99,,2013-07-20 15:19:00,
2013-07-20 17:25:00,80.3,48.0,30.17,SSW,199,5.3,8.5,32,0.00,,,-99.99,,2013-07-20 15:25:00,
2013-07-20 17:35:00,79.8,47.6,30.17,SW,217,5.5,8.4,32,0.00,,,-99.99,,2013-07-20 15:35:00,
2013-07-20 17:44:00,80.1,48.2,30.17,SSW,206,5.5,9.7,32,0.00,,,-99.99,,2013-07-20 15:44:00,
2013-07-20 17:50:00,79.5,47.5,30.17,SSW,213,5.7,9.5,32,0.00,,,-99.99,,2013-07-20 15:50:00,
2013-07-20 17:59:00,78.8,46.5,30.17,SW,219,5.6,8.3,32,0.00,,,-99.99,,2013-07-20 15:59:00,
2013-07-20 18:09:00,79.5,47.3,30.16,SSW,199,5.7,9.1,32,0.00,,,-99.99,,2013-07-20 16:09:00,
2013-07-20 18:20:00,79.5,47.3,30.16,SSW,207,5.9,9.4,32,0.00,,,-99.99,,2013-07-20 16:20:00,
2013-07-20 18:30:00,79.1,47.3,30.16,SSW,197,6.1,8.7,32,0.00,,,-99.99,,2013-07-20 16:30:00,
2013-07-20 18:39:00,79.0,47.5,30.16,SSW,194,5.5,9.0,33,0.00,,,-99.99,,2013-07-20 16:39:00,
2013-07-20 18:45:00,79.1,47.8,30.16,SSW,200,5.1,7.9,33,0.00,,,-99.99,,2013-07-20 16:45:00,
2013-07-20 18:55:00,78.1,47.6,30.16,SSW,211,5.5,10.4,34,0.00,,,-99.99,,2013-07-20 16:55:00,
2013-07-20 19:04:00,77.8,47.6,30.16,SSW,193,5.3,7.5,34,0.00,,,-99.99,,2013-07-20 17:04:00,
2013-07-20 19:10:00,77.3,47.4,30.16,SSW,200,6.9,15.1,34,0.00,,,-99.99,,2013-07-20 17:10:00,
2013-07-20 19:20:00,76.8,47.6,30.15,South,186,6.3,10.3,35,0.00,,,-99.99,,2013-07-20 17:20:00,
2013-07-20 19:31:00,76.1,47.9,30.15,SSW,211,6.7,9.5,36,0.00,,,-99.99,,2013-07-20 17:31:00,
2013-07-20 19:40:00,76.0,48.2,30.15,SSW,196,5.7,8.0,37,0.00,,,-99.99,,2013-07-20 17:40:00,
2013-07-20 19:50:00,75.7,48.6,30.15,South,184,5.3,8.0,38,0.00,,,-99.99,,2013-07-20 17:50:00,
2013-07-20 20:00:00,75.2,49.2,30.15,South,186,4.8,8.1,39,0.00,,,-99.99,,2013-07-20 18:00:00,
2013-07-20 20:10:00,74.6,49.9,30.15,SSW,199,4.2,9.0,41,0.00,,,-99.99,,2013-07-20 18:10:00,
2013-07-20 20:20:00,74.1,50.1,30.15,SSW,205,4.0,7.5,42,0.00,,,-99.99,,2013-07-20 18:20:00,
2013-07-20 20:29:00,73.9,50.1,30.14,SSW,197,3.6,6.3,43,0.00,,,-99.99,,2013-07-20 18:29:00,
2013-07-20 20:36:00,73.7,50.3,30.14,South,184,3.5,8.5,43,0.00,,,-99.99,,2013-07-20 18:36:00,
2013-07-20 20:46:00,73.3,50.7,30.14,SSW,193,4.4,6.0,45,0.00,,,-99.99,,2013-07-20 18:46:00,
2013-07-20 20:56:00,72.2,50.6,30.14,South,170,2.7,7.5,46,0.00,,,-99.99,,2013-07-20 18:56:00,
2013-07-20 21:06:00,71.6,50.8,30.14,South,171,1.8,3.5,47,0.00,,,-99.99,,2013-07-20 19:06:00,
2013-07-20 21:14:00,71.2,50.9,30.14,SSE,155,1.3,4.4,48,0.00,,,-99.99,,2013-07-20 19:14:00,
2013-07-20 21:20:00,70.8,51.2,30.14,SSE,147,1.1,1.7,49,0.00,,,-99.99,,2013-07-20 19:20:00,
2013-07-20 21:29:00,70.5,51.4,30.14,SE,135,1.2,2.0,50,0.00,,,-99.99,,2013-07-20 19:29:00,
2013-07-20 21:35:00,70.2,51.5,30.14,SE,126,0.9,7.6,51,0.00,,,-99.99,,2013-07-20 19:35:00,
2013-07-20 21:45:00,70.0,51.6,30.14,NNW,335,1.0,2.0,52,0.00,,,-99.99,,2013-07-20 19:45:00,
2013-07-20 21:54:00,70.0,52.7,30.14,WNW,294,1.3,4.1,54,0.00,,,-99.99,,2013-07-20 19:54:00,
2013-07-20 22:00:00,69.8,52.1,30.14,SSE,156,1.5,2.5,53,0.00,,,-99.99,,2013-07-20 20:00:00,
2013-07-20 22:05:00,69.3,52.5,30.15,ENE,70,1.6,7.3,55,0.00,,,-99.99,,2013-07-20 20:05:00,
2013-07-20 22:16:00,69.5,49.6,30.15,WNW,300,2.5,6.0,49,0.00,,,-99.99,,2013-07-20 20:16:00,
2013-07-20 22:25:00,68.9,51.8,30.15,NNW,330,2.1,4.7,54,0.00,,,-99.99,,2013-07-20 20:25:00,
2013-07-20 22:30:00,68.6,52.4,30.15,WSW,253,2.4,4.7,56,0.00,,,-99.99,,2013-07-20 20:30:00,
2013-07-20 22:36:00,68.2,52.8,30.15,WNW,289,1.9,3.3,57,0.00,,,-99.99,,2013-07-20 20:36:00,
2013-07-20 22:46:00,67.8,51.3,30.15,NW,317,2.7,5.7,55,0.00,,,-99.99,,2013-07-20 20:46:00,
2013-07-20 22:55:00,67.5,53.3,30.15,West,272,0.5,1.7,60,0.00,,,-99.99,,2013-07-20 20:55:00,
2013-07-20 23:05:00,67.0,53.0,30.15,East,81,1.1,1.7,60,0.00,,,-99.99,,2013-07-20 21:05:00,
2013-07-20 23:11:00,66.8,52.9,30.15,ENE,58,1.0,1.9,60,0.00,,,-99.99,,2013-07-20 21:11:00,
2013-07-20 23:21:00,66.6,52.7,30.15,NE,45,0.8,1.6,60,0.00,,,-99.99,,2013-07-20 21:21:00,
2013-07-20 23:29:00,66.3,53.6,30.15,ESE,111,1.0,7.4,63,0.00,,,-99.99,,2013-07-20 21:29:00,
2013-07-20 23:36:00,66.5,51.2,30.15,ESE,102,0.9,1.6,57,0.00,,,-99.99,,2013-07-20 21:36:00,
2013-07-20 23:46:00,67.1,47.1,30.15,ENE,60,1.0,1.6,48,0.00,,,-99.99,,2013-07-20 21:46:00,
2013-07-20 23:56:00,67.2,47.4,30.15,NE,56,0.9,1.9,48,0.00,,,-99.99,,2013-07-20 21:56:00,